Regional Weather Roundup
Issued by NWS Grand Forks, ND

Home | Current Version | Previous Version | Graphics & Text | Print | Product List | Glossary On
Versions: 1 2 3 4 5 6 7 8 9 10 11 12 13 14 15 16 17 18 19 20 21 22 23 24 25 26 27 28 29 30 31 32 33 34 35 36 37 38 39 40 41 42 43 44 45 46 47 48 49 50
000
ASUS43 KFGF 231910
RWRFGF
PRAIRIE TO PINES  WEATHER ROUNDUP
NATIONAL WEATHER SERVICE EASTERN NORTH DAKOTA/GRAND FORKS ND
200 PM CDT TUE AUG 23 2016

 **SATELLITE DATA USED TO AUGMENT SKY COVER AT AUTOMATED STATIONS**
 *****  WEATHER ACROSS EASTERN NORTH DAKOTA  *****

CITY           SKY/WX    TMP DP  RH WIND       PRES   REMARKS
GRAND FORKS    CLOUDY    79  67  66 NW10      29.65R
GRAND FRKS AFB CLOUDY    76  67  74 W8        29.67R
GRAND FRKS NWS   N/A     84 N/A N/A W14         N/A
DEVILS LAKE    CLOUDY    76  68  76 W3        29.67R
FARGO          SUNNY     86  66  51 SE21G29   29.68S
WAHPETON ARPT  CLEAR     84  63  48 S17G28    29.73F
$$

 ***** WEATHER ACROSS CENTRAL AND WESTERN NORTH DAKOTA  *****

CITY           SKY/WX    TMP DP  RH WIND       PRES   REMARKS
BISMARCK       MOSUNNY   83  42  23 NW23G31   29.74R
MINOT          MOSUNNY   79  41  25 W29G38    29.76R
JAMESTOWN      MOSUNNY   84  67  56 SW14      29.67R
MINOT AFB      SUNNY     79  41  25 NW28G33   29.75R
GARRISON         N/A     80  37  21 NW26G40   29.77
WILLISTON      SUNNY     79  36  21 W24G32    29.83F
DICKINSON      MOSUNNY   76  30  18 NW24G35   29.85S
HETTINGER      SUNNY     79  32  18 NW26G37   29.88R
$$

 *****  OTHER AIRPORT OBSERVATIONS IN OUR AREA  *****

CITY           SKY/WX    TMP DP  RH WIND       PRES   REMARKS
WALHALLA       NOT AVBL
GRAFTON AIRPOR FAIR      81  68  65 S12       29.65F
VALLEY CITY AR FAIR      82  68  61 S22       29.71R
CANDO          NOT AVBL
CAVALIER APRT  FAIR      82  66  57 S8        29.60F
GWINNER        FAIR      84  66  54 S20G30    29.71R
SHEYENNE NWR     N/A     89  67  47 S16       29.95S HX  92
ROLLA          FAIR      73  63  68 NW21      29.68F
 ***** THE ABOVE OBSERVATIONS ARE NON NWS ARE NOT QUALITY
       CONTROLLED AND MAY MIS-REPORT RAIN FOR SNOW...
$$

  *****  WEATHER ACROSS NORTHERN MINNESOTA  *****

CITY           SKY/WX    TMP DP  RH WIND       PRES   REMARKS
FLAG ISLAND    SUNNY     75  66  73 SE6       29.69F
WARROAD        CLOUDY    81  70  69 SE15G22   29.69S
ROSEAU         CLOUDY    82  70  65 S13G20    29.70R
HALLOCK        CLOUDY    82  66  57 S18G24    29.63S
THF RVR FALLS  CLOUDY    83  67  58 S20       29.66F
BAUDETTE       PTSUNNY   79  66  64 SE13      29.73S
WASKISH        CLOUDY    81  68  65 SE10G17   29.73F
CROOKSTON      MOSUNNY   84  66  54 S24G33    29.64F
STEPHEN NDAWN    N/A     82  66  57 S12         N/A
GREENBUSH NDAW   N/A     82  64  54 S12         N/A
$$
  *****  WEATHER ACROSS CENTRAL AND WEST MINNESOTA  *****

CITY           SKY/WX    TMP DP  RH WIND       PRES   REMARKS
FOSSTON        SUNNY     82  64  54 S20G25    29.72S
BEMIDJI        SUNNY     82  67  60 S17G23    29.76F
PARK RAPIDS    SUNNY     85  66  53 S17       29.79F
ELBOW LAKE     FAIR      82  69  66 S18G26    29.79S
WADENA         SUNNY     82  66  57 S14G21    29.80S
DETROIT LAKES  SUNNY     82  66  57 S18       29.77F
MOORHEAD       SUNNY     84  64  51 S22G29    29.70S
FERGUS FALLS     N/A     82  68  61 S23       29.77S
MORRIS MN      MOSUNNY   84  68  58 S20G26    29.79S
STAPLES        SUNNY     82  66  57 S16       29.82S
$$
  *****  WEATHER ELSEWHERE ACROSS MINNESOTA  *****

CITY           SKY/WX    TMP DP  RH WIND       PRES   REMARKS
DULUTH         MOSUNNY   82  67  60 S15       29.89F
INTRNTL FALLS  PTSUNNY   78  66  66 SE14G20   29.77F
ELY            CLOUDY    82  63  51 S9G16     29.86F
CLOQUET        CLOUDY    81  64  57 S13       29.89S
WHEATON        LGT RAIN  84  70  61 S15G24    29.77F
BRAINERD       SUNNY     81  67  62 S16G25    29.85S
HIBBING        SUNNY     80  65  59 S12G21    29.84F
ALEXANDRIA     SUNNY     81  67  62 S18G24    29.84S
SAINT CLOUD    CLOUDY    82  70  66 S15G22    29.87F
MINNEAPOLIS    PTSUNNY   83  68  60 S20       29.91S
$$

  *****  WEATHER ACROSS SOUTH DAKOTA  *****

CITY           SKY/WX    TMP DP  RH WIND       PRES   REMARKS
SIOUX FALLS    LGT RAIN  71  69  93 S10       29.84F
BROOKINGS      CLOUDY    76  67  73 S20       29.83S
WATERTOWN      SUNNY     83  64  52 S23G33    29.79S
HURON          SUNNY     85  63  47 S17G29    29.73S
SISSETON         N/A     86  65  49 S24G33    29.73S
ABERDEEN       SUNNY     88  64  44 S20G32    29.69R
MITCHELL       MOSUNNY   80  68  66 S20G29    29.77F
PIERRE         SUNNY     82  56  40 NW15G23   29.74R
MOBRIDGE       PTSUNNY   83  52  34 N16G28    29.72R
RAPID CITY     SUNNY     80  31  16 NW30G38   29.93R
$$

  *****  SOME WEATHER IN NEARBY STATES *****

CITY           SKY/WX    TMP DP  RH WIND       PRES   REMARKS
GLASGOW MT     SUNNY     71  41  33 W37G49    29.88F
GREAT FALLS MT CLOUDY    69  31  24 W13       30.04R
CHEYENNE WY    CLOUDY    78  20  11 NW17G30   30.11R
SCOTTSBLUFF NE SUNNY     85  34  16 NW18      29.97R
OMAHA NE       PTSUNNY   82  71  69 S24G31    29.88F
DES MOINES IA  CLOUDY    79  69  71 S20       29.98F
DAVENPORT IA   PTSUNNY   79  64  60 S13       30.11F
CHICAGO IL     PTSUNNY   80  61  52 S12       30.16F
EAU CLAIRE WI  MOSUNNY   82  64  54 S13G22    29.97F
LA CROSSE WI   MOSUNNY   84  71  65 S18G25    30.01F
$$

  *****  SOME NATIONAL WEATHER *****

CITY           SKY/WX    TMP DP  RH WIND       PRES   REMARKS
LA GUARDIA NY  MOSUNNY   82  49  31 SW6       30.27F
RALEIGH NC     MOSUNNY   84  58  40 CALM      30.28F
ATLANTA GA     PTSUNNY   90  68  48 NW8       30.23F HX  94
NEW ORLEANS LA MOSUNNY   94  73  50 SW5       30.17F HX 103
OKLAHOMA CITY  PTSUNNY   84  73  69 S20G29    30.04F HX  90
ALBUQUERQUE NM MOSUNNY   79  47  32 SW7       30.20F
SALT LAKE CITY PTSUNNY   84  41  21 CALM      30.08S
LOS ANGELES CA SUNNY     74  62  66 W8        30.04F
BOISE ID       SUNNY     74  30  19 W10       30.12S
SEATTLE WA     MOSUNNY   71  51  49 NW9G20    30.21S
$$

*** WEATHER ACROSS MANITOBA...SASKATCHEWAN AND ONTARIO ***
                ***ONTARIO***

CITY           SKY/WX    TMP DP  RH WIND       PRES   REMARKS
GERALDTON      CLOUDY    81  64  57 SW14G22   29.91S
THUNDER BAY    PTSUNNY   79  66  65 SE14      29.87F
SIOUX LOOKOUT  PTSUNNY   79  68  69 SE7       29.82F
TORONTO        MOSUNNY   82  55  39 W9G25     30.21F
BIG TROUT LK   SUNNY     66  50  55 SW7       29.95F
PICKLE LAKE    PTSUNNY   73  57  56 E8        29.90F
DRYDEN         MOSUNNY   81  66  61 SE9G20    29.78F
KENORA         PTSUNNY   79  66  65 S18G28    29.74R
$$
                *** MANITOBA***

CITY           SKY/WX    TMP DP  RH WIND       PRES   REMARKS
BRANDON        CLOUDY    72  63  73 E5        29.69R
DAUPHIN        CLOUDY    68  66  94 NW8       29.66R
ISLAND LAKE    PTSUNNY   66  54  63 NE9G17    29.91F
PILOT MOUND      N/A     72  66  83 NW14G20     N/A
THE PAS        CLOUDY    64  54  68 E16G36    29.80R
THOMPSON       PTSUNNY   68  50  52 NE10      29.94F
WINNIPEG       CLOUDY    77  66  69 CALM      29.65R
LYNN LAKE      PTSUNNY   68  45  42 MISG      29.99F
CHURCHILL      MOSUNNY   61  46  59 N15       29.94R
GILLAM         PTSUNNY   68  48  49 NW3       29.95F
$$
                ***SASKATCHEWAN***

CITY           SKY/WX    TMP DP  RH WIND       PRES   REMARKS
ESTEVAN        PTSUNNY   73  45  35 W16       29.79F
KINDERSLEY     CLOUDY    57  54  88 NW17G26   29.73S
LLOYDMINSTER   CLOUDY    55  52  88 N15G24    29.84R
PRINCE ALBERT  LGT RAIN  57  54  88 E15G23    29.73R FOG
REGINA         PTSUNNY   66  46  48 W21G29    29.76F
YORKTON        SUNNY     68  50  52 W12G18    29.72S
N. BATTLEFORD  PTSUNNY   66  52  59 N15       29.71F
LA RONGE       LGT RAIN  55  50  82 NE16G25   29.90R
SASKATOON      PTSUNNY   63  48  59 E10       29.69R
SWIFT CURRENT  LGT RAIN  52  50  93 W15G24    29.78R
$$
NOTE: THESE ARE AUTOMATED STATIONS WITH LIMITED QUALITY CONTROL
      "FAIR" INDICATES FEW OR NO CLOUDS BELOW 12,000 FEET WITH NO
      SIGNIFICANT WEATHER AND/OR OBSTRUCTIONS TO VISIBILITY.
      SKY/WX - SKY CONDITION AND SIGNIFICANT WEATHER.
      TMP - AIR TEMPERATURE.    DP   - DEWPOINT TEMPERATURE.
      RH  - RELATIVE HUMIDITY.  PRES - PRESSURE.
      HX  - HEAT INDEX.         WCI  - WIND CHILL INDEX.
$




USA.gov is the U.S. government's official web portal to all federal, state and local government web resources and services.